RH
33 39 41 31 34 33 35 39 44 38 32 31 34 32 30 26 25 27 30 52 81 77 67 63 65 71 77 66 57 20 17 45 93 97 100 100 99 100 100 95 81 82 97 86
40 46 32 30 30 32 34 38 41 35 31 34 36 34 30 29 26 50 76 78 80 79 70 65 67 74 80 84 79 68 26 35 84 93 98 99 100 100 100 100 100 82 91 87
49 37 34 35 38 40 41 42 41 40 34 33 36 42 29 25 56 68 68 70 73 80 78 74 71 74 75 82 89 88 76 57 71 93 100 99 100 99 99 100 99 99 97 88
47 38 38 42 43 42 49 39 38 41 44 52 32 54 28 48 59 71 66 67 84 82 78 75 75 73 74 80 89 92 95 82 89 99 96 97 91 90 96 100 96 92 92 97
46 36 45 45 41 38 45 38 42 42 47 54 46 53 48 65 68 69 67 75 89 84 84 80 72 72 76 82 89 94 97 94 91 100 98 99 94 90 99 88 32 42 99 86
36 26 29 34 31 35 28 34 41 52 56 61 47 51 52 51 73 73 68 79 75 78 74 73 70 74 79 85 92 95 99 100 96 96 99 100 93 95 100 100 96 100 100 83
36 33 27 28 30 30 32 39 53 55 68 61 48 56 50 52 69 74 79 84 84 80 78 76 74 76 81 86 93 97 99 99 99 92 97 100 94 94 95 100 100 99 100 99
46 42 41 40 41 43 43 42 58 64 71 60 41 60 51 63 66 74 85 84 82 83 77 77 80 79 83 88 94 98 100 100 97 93 96 99 97 94 89 96 99 100 100 100
58 56 38 32 30 41 45 51 46 54 58 65 55 50 48 73 75 90 87 84 86 84 81 78 80 84 85 91 96 99 100 100 100 99 98 100 93 92 93 97 99 100 100 99
39 32 47 32 35 34 36 44 75 86 86 75 63 59 66 73 79 90 89 91 88 82 80 79 77 82 87 93 96 99 100 100 100 100 100 100 100 95 93 91 100 100 100 100
46 40 41 29 41 39 37 53 77 81 88 97 93 82 91 96 95 93 86 86 87 86 84 81 82 83 88 93 96 98 100 100 100 100 99 99 100 99 98 95 100 95 88 97
48 64 61 42 42 46 44 82 75 93 92 88 94 85 86 88 89 86 88 84 82 83 82 80 80 82 90 93 96 97 99 100 100 100 100 100 100 91 75 100 95 90 81 90
40 61 49 34 40 38 57 52 60 68 83 92 96 72 76 86 92 92 94 93 86 81 83 82 81 84 90 95 97 97 98 100 100 100 100 100 96 99 99 97 91 91 96 100
50 60 44 39 38 64 66 62 59 73 98 80 58 55 46 71 92 93 95 96 92 83 86 86 87 88 91 95 98 98 98 100 100 100 100 100 100 100 100 100 100 100 100 100
59 63 66 62 64 58 60 50 45 61 59 83 39 48 44 68 87 96 96 94 91 89 93 92 91 91 95 96 98 98 99 100 100 100 100 100 100 100 100 100 100 100 100 100
69 78 63 67 58 54 51 52 57 59 59 61 57 58 55 91 90 91 93 91 92 92 94 93 88 91 96 97 98 98 99 100 100 100 100 100 99 97 99 99 100 100 100 100
63 82 78 66 58 52 44 54 86 87 78 85 74 56 82 93 88 92 91 94 96 92 95 95 96 96 97 99 100 99 100 99 100 100 100 100 99 100 94 97 100 100 100 100
80 73 80 82 63 64 67 84 86 92 90 92 92 84 85 87 93 95 96 94 96 92 95 96 96 96 99 100 100 100 100 100 100 100 100 100 100 100 96 96 99 100 100 100
63 80 93 88 96 63 68 88 97 98 87 97 97 96 96 95 90 95 91 90 96 99 97 98 100 99 100 100 100 99 99 99 98 100 100 100 99 100 98 99 98 99 100 100
71 66 85 91 97 99 93 81 76 94 96 95 96 96 96 96 97 95 93 92 96 98 100 99 100 99 100 100 100 99 98 98 98 99 100 99 100 100 96 98 100 99 100 99
88 93 91 92 96 90 91 85 89 98 97 95 96 96 99 94 96 98 94 96 98 98 99 97 99 99 99 100 100 100 100 100 100 97 97 99 100 100 98 98 96 100 99 99
96 95 94 86 97 95 89 75 89 98 97 96 96 95 93 94 94 96 96 96 96 96 97 97 98 98 99 99 99 99 100 100 97 96 97 100 100 98 99 99 99 98 97 98
96 98 97 95 98 96 96 97 98 97 96 96 94 92 87 91 95 96 96 96 96 97 98 99 98 98 98 99 100 98 100 96 94 94 100 98 95 96 95 93 96 99 96 98
88 94 97 97 97 96 97 95 95 95 95 95 92 90 89 95 96 96 97 96 96 98 98 97 96 96 98 98 98 99 99 96 95 97 100 100 100 98 96 98 97 96 97 98
81 86 94 97 96 94 95 96 96 96 94 90 91 89 92 91 96 94 96 97 98 99 99 99 99 99 100 100 100 100 99 83 90 94 95 97 100 100 100 100 100 100 99 96
83 97 99 97 94 91 97 97 96 93 92 89 84 88 92 90 95 93 95 97 98 99 98 97 98 97 98 99 100 98 98 97 93 86 86 92 93 96 100 100 100 100 99 99
Wind_Speed
6 5 7 18 5 4 2 3 5 5 9 4 10 14 10 10 6 8 7 6 7 8 7 15 21 23 29 27 23 28 33 36 35 32 29 28 31 34 34 38 39 35 32 31
2 8 13 6 5 5 5 4 6 6 7 5 10 18 10 8 5 3 4 4 4 7 12 14 22 19 20 27 25 21 30 35 37 34 35 27 33 31 32 28 30 38 36 32
7 6 9 7 4 5 5 5 5 7 5 5 5 9 2 3 4 2 1 2 2 6 12 15 16 23 22 24 24 24 23 29 37 36 33 26 23 17 20 24 32 32 38 35
6 8 7 5 6 8 4 9 9 7 3 4 2 7 2 3 4 2 6 7 7 11 13 12 14 20 24 25 26 27 25 25 34 34 33 34 32 23 26 30 25 18 30 34
7 5 6 4 10 7 8 7 7 5 5 4 3 1 4 3 3 3 7 8 8 10 11 15 15 22 28 25 27 26 28 24 29 34 37 36 30 26 26 31 28 33 34 27
7 1 4 7 6 7 3 2 2 3 2 2 9 7 4 2 4 2 3 4 7 9 12 14 20 24 26 26 27 28 27 25 29 33 34 35 31 28 28 28 27 31 34 34
2 4 1 2 3 1 3 4 2 2 1 4 5 3 7 4 4 3 3 2 6 8 12 13 17 18 26 29 31 30 28 26 24 28 28 29 29 30 31 36 35 32 30 33
5 2 4 5 2 2 4 6 4 5 3 4 3 5 5 4 3 1 5 5 6 10 13 13 16 18 25 30 31 32 31 32 20 24 24 22 26 25 25 24 26 29 31 28
3 2 3 5 3 1 3 3 2 2 1 2 3 5 5 3 4 6 7 9 10 11 14 15 17 23 27 30 31 30 31 31 16 21 22 24 27 27 25 22 21 21 25 25
1 2 3 2 1 6 5 2 2 3 2 5 2 2 3 6 6 5 9 9 12 13 15 16 16 21 26 30 32 31 30 28 7 15 20 21 22 23 23 17 24 26 23 21
2 2 3 2 3 1 4 2 4 2 2 3 2 4 5 4 4 6 8 10 12 13 14 14 15 22 24 26 30 31 33 31 23 12 17 20 22 22 18 19 23 24 22 21
1 3 2 2 7 2 1 4 4 3 2 2 2 4 1 4 8 8 8 10 11 11 13 14 15 21 25 27 31 31 32 30 29 14 12 18 18 15 16 28 27 24 21 21
3 1 3 2 2 3 4 4 4 0 2 5 2 4 3 7 8 8 7 7 11 13 15 15 15 16 23 28 31 31 31 31 29 23 11 4 4 10 19 28 25 22 21 19
3 2 3 3 2 2 1 3 2 4 2 3 10 14 19 6 7 8 6 7 8 11 13 14 15 16 23 26 27 29 31 31 29 25 23 19 11 13 21 25 25 23 20 18
3 2 2 4 1 2 4 9 10 7 10 5 16 14 12 2 2 7 7 8 9 11 14 14 14 15 21 26 27 28 28 29 25 27 30 25 19 14 9 25 28 24 23 21
4 2 2 2 6 7 8 11 10 13 14 16 19 21 6 6 8 8 8 9 10 12 13 14 14 15 19 24 26 27 29 29 27 27 25 25 24 20 19 17 27 26 21 19
1 3 2 2 0 4 6 1 0 6 9 12 15 15 9 6 8 6 6 7 10 11 12 13 14 14 20 23 24 24 25 28 28 28 26 21 29 27 28 24 20 25 22 20
4 4 2 2 2 1 1 5 1 8 7 11 8 5 9 12 10 8 6 8 9 10 10 11 13 17 21 23 24 23 27 28 28 29 31 31 30 29 28 23 28 25 24 24
5 3 1 2 1 5 4 5 5 4 4 7 8 4 11 13 14 11 9 10 10 8 9 12 16 17 20 23 24 23 27 27 28 28 30 32 30 27 26 29 27 27 28 28
6 3 2 2 2 4 2 11 11 8 4 8 8 5 6 8 2 3 7 10 10 13 13 14 17 18 20 23 23 22 24 25 27 27 27 27 29 28 35 27 23 26 28 28
4 3 4 3 2 3 8 13 8 3 4 8 7 6 6 5 7 8 9 11 13 13 14 16 17 18 21 19 19 22 22 24 24 26 27 29 28 29 28 30 31 24 29 29
2 1 2 3 4 4 13 3 5 5 4 6 6 7 14 12 12 10 9 9 11 12 15 17 15 17 20 23 19 20 22 21 23 25 28 28 28 27 27 28 27 28 30 28
2 0 1 2 2 3 4 5 5 7 5 6 7 10 13 10 8 7 7 8 10 13 14 15 15 16 22 22 22 20 21 22 23 26 28 28 27 28 28 29 28 27 27 22
4 4 2 3 2 3 5 7 8 9 8 9 10 11 10 10 8 8 6 6 10 13 14 15 17 17 19 22 23 20 20 20 22 23 23 23 24 27 28 28 28 28 25 23
2 3 2 3 4 5 7 6 6 7 8 10 10 10 10 9 8 7 6 7 11 13 16 17 15 16 18 21 21 20 19 19 19 20 20 20 21 21 24 29 25 26 27 24
2 2 1 2 1 3 4 5 6 7 8 8 9 11 11 11 8 9 8 12 13 15 18 20 20 21 21 22 24 22 19 16 17 17 17 17 18 18 18 18 27 29 24 23
Wind_Direction
181 161 190 223 180 177 199 214 240 256 263 331 283 287 272 281 278 289 320 19 354 330 299 315 325 331 329 327 330 286 256 238 214 211 200 199 200 205 209 210 212 208 210 210
67 231 214 153 182 208 222 251 266 271 266 163 282 284 275 258 245 120 96 353 324 326 329 325 327 330 332 324 324 317 269 240 216 204 206 201 204 207 208 201 210 207 209 210
179 239 163 163 172 189 209 197 243 224 341 273 295 288 229 269 89 109 82 270 344 341 327 322 327 322 330 326 324 313 294 251 221 205 199 199 187 193 186 193 205 207 209 206
223 243 239 168 203 176 236 209 229 254 160 233 106 291 245 110 204 358 311 341 1 349 337 321 327 325 325 324 323 316 307 279 224 200 197 194 193 187 198 192 189 197 243 207
230 192 193 171 218 148 224 240 229 214 196 137 234 215 246 71 11 290 341 13 3 339 320 323 328 328 319 326 321 319 316 285 223 199 197 195 196 195 184 181 164 197 212 208
219 179 161 195 209 184 181 156 88 66 149 240 200 175 280 272 189 293 18 11 342 324 327 326 330 333 323 330 333 330 326 301 213 201 199 197 195 183 168 176 172 186 196 204
222 241 215 78 156 81 125 103 278 316 344 226 167 199 258 241 253 230 279 322 349 335 321 348 341 338 333 338 341 336 332 321 209 209 208 202 197 189 177 174 179 181 181 193
167 140 15 349 83 156 183 170 169 232 208 248 154 237 249 213 205 147 65 20 358 342 319 10 343 340 337 342 340 338 333 328 206 204 208 203 202 186 192 190 179 180 183 187
131 102 348 32 352 352 161 149 201 261 123 278 216 298 315 214 278 90 31 4 353 343 337 358 348 344 347 345 339 336 330 327 224 197 193 194 200 196 192 193 198 188 178 182
105 82 81 292 228 18 72 343 69 11 210 239 260 242 246 350 10 46 15 350 351 344 349 356 353 346 348 345 343 340 342 341 240 184 185 182 185 193 196 192 199 183 174 182
69 83 315 335 59 55 352 65 75 116 229 262 288 255 330 4 20 52 16 359 356 346 350 355 348 349 352 349 351 347 354 352 0 179 180 181 189 186 180 197 193 191 183 186
58 112 130 258 326 268 95 70 54 133 142 279 306 262 186 103 66 57 32 3 356 347 350 357 355 351 355 357 356 352 353 353 356 18 194 181 178 188 183 205 200 194 180 186
162 131 123 91 357 34 80 75 86 303 153 223 214 247 160 97 80 63 38 30 4 343 6 353 359 359 360 355 355 355 356 358 359 19 34 163 146 188 182 198 191 185 180 182
77 127 133 184 129 99 312 308 252 169 138 230 241 293 302 3 12 39 26 6 55 349 9 352 359 1 1 357 354 356 359 2 7 14 37 36 37 186 197 187 179 172 169 167
74 127 155 229 171 168 217 262 268 224 242 223 272 252 263 291 23 53 32 16 31 5 8 3 359 358 1 359 357 1 4 5 8 26 29 26 32 65 95 149 156 156 157 156
10 103 83 276 241 236 257 246 232 238 255 253 255 263 281 104 106 69 46 26 22 15 6 4 4 1 3 1 358 1 5 7 16 28 28 34 48 52 56 53 129 134 137 137
56 117 80 260 98 296 275 260 123 301 304 275 251 249 146 142 99 73 62 48 34 23 10 9 5 3 2 0 2 5 8 14 20 24 28 34 55 56 46 45 81 111 112 117
146 135 124 246 287 307 57 67 304 314 355 344 339 331 149 129 106 85 52 64 41 32 13 14 9 8 7 7 9 15 22 24 24 26 28 33 47 53 57 42 48 68 87 86
179 131 168 120 267 304 202 35 345 345 315 13 338 93 123 131 116 68 60 63 54 33 17 17 14 14 16 18 13 20 31 27 26 26 30 31 45 53 63 58 56 61 66 71
110 85 107 154 182 248 357 322 316 281 236 18 354 325 180 186 139 84 65 60 50 43 27 18 15 20 19 20 25 26 32 34 28 21 30 39 44 47 56 55 58 66 73 75
119 155 205 240 276 305 350 316 303 224 3 22 2 359 76 78 67 86 64 55 47 42 31 26 24 27 23 22 29 33 29 32 36 45 46 49 54 53 63 66 64 58 67 67
71 249 180 187 216 270 0 351 39 313 43 37 42 55 80 77 70 64 54 46 36 33 28 26 26 24 24 27 31 34 35 38 50 53 52 52 55 60 63 66 66 67 68 64
43 249 134 21 101 11 25 26 30 23 40 37 58 59 73 77 65 60 54 44 33 30 27 30 30 26 26 26 31 33 31 44 49 53 51 51 57 59 61 65 61 55 60 58
8 3 108 175 98 61 40 57 50 50 54 59 60 68 74 83 69 59 43 38 38 34 35 31 33 31 25 31 38 34 37 47 49 47 44 49 50 58 63 62 64 65 59 56
347 337 6 76 122 115 62 64 64 67 66 66 61 62 66 71 55 60 54 46 42 39 38 42 41 34 26 35 41 42 42 45 50 53 51 50 52 54 62 63 58 65 66 71
350 329 30 179 53 81 66 77 83 75 76 76 80 74 67 71 68 63 54 48 45 40 44 42 39 40 37 41 41 39 41 45 53 52 52 52 60 62 61 67 70 66 71 72